METEOR 2-11 DEB, 40706

Orbit data source: Space-Track

METEOR 2-11 DEB, 40706 is space debris in LEO originally from a launch on Thu, 05 Jul 1984 UTC launched from the Plesetsk Missile And Space Complex (PKMTR). Debris objects in space refer to the collection of defunct objects orbiting the Earth. Examples of debris include non-operational satellites, rocket bodies, and fragments generated from explosions, collisions, or faulty payload assembly.

Loading next visibility...
Identifier
40706, 1984-072H
Orbit
LEO
Country
Flag of CISCIS
Related business
Manufacturer
Unknown
Mission
Spacecraft
Bus & Motor
Unknown
Mass
Unknown
Launch date (UTC)
1984-07-05 (42 years ago)
Launch vehicle
Unknown
Launch site
Plesetsk Missile And Space Complex (PKMTR)
Object type
Payload
Rocket body
Debris
Shape & HBR
Unknown shape, 0.1 m
Radar Cross Section
Small (<0.1 m²)

Expand to show TLE details & history
Last TLE update: 4 days ago

TLE from 4 days ago
0 METEOR 2-11 DEB
1 40706U 84072H   26058.81959657  .00002651  00000-0  18629-2 0  9991
2 40706  82.5183  97.6520 0010835 274.9729  85.0202 13.97842380573920
Epoch: 2026-02-27T19:40Z
TLE epoch observation values (Epoch: 2026-02-27T19:40:13.143Z)
Latitude
-0.00001°
Longitude
4.94664°
Altitude
903.52 km
Speed
7.401 km/s
True Right ascension
06h 30m 36s
True Declination
0° 00' 00"
Sunlit
Object was in daylight at epoch
Visualization orbit readout
Latitude
Unknown
Longitude
Unknown
Altitude
Unknown
Speed
Unknown
Apparent Right ascension
Unknown
Apparent Declination
Unknown
Sunlit
N/A
Visualization observer readout
Local Sidereal Time
16:09:17
Azimuth
Unknown
Elevation
Unknown
Doppler factor
Unknown
Orbital elements
Apogee altitude
906.294 km
Perigee altitude
890.526 km
Semi-major axis
7,276.547 km
Eccentricity
0.00108
Inclination
82.5183°
RAAN
97.652°
Arg. of periapsis
274.9729°
True anomaly
85.14391°
Mean anomaly
85.0202°
Eccentric anomaly
85.08205°
Mean motion
3.49667 °/min
Orbital period
102.95 mins
BSTAR
0.0018629
Loading maneuver chart data...
Computing Atmospheric mass density...
Loading historical data...
Loading historical data...
Loading historical data...
Loading historical data...
Loading historical data...
Loading historical data...
Loading historical data...

Documentation

Showing up to 5 results
|